Regional Weather Roundup
Issued by NWS Wakefield, VA

Home | Current Version | Previous Version | Graphics & Text | Print | Product List | Glossary On
Versions: 1 2 3 4 5 6 7 8 9 10 11 12 13 14 15 16 17 18 19 20 21 22 23 24 25 26 27 28 29 30 31 32 33 34 35 36 37 38 39 40 41 42 43 44 45 46 47
000
ASUS41 KAKQ 020810
RWRAKQ

REGIONAL WEATHER ROUNDUP
NATIONAL WEATHER SERVICE WAKEFIELD VA
400 AM EDT THU OCT 02 2014

Note: "fair" indicates few or no clouds below 12,000 feet with no
significant weather and/or obstructions to visibility. * = Denotes
station may not report precipitation (e.g., rain,snow,etc.),
thunder or fog.

VAZ042-051-052>054-056-020900-
NORTHERN VIRGINIA

CITY           SKY/WX    TMP DP  RH WIND       PRES   REMARKS
WASH NATIONAL  PTCLDY    64  58  80 CALM      30.09S
DULLES         PTCLDY    58  58 100 CALM      30.09S FOG
FORT BELVOIR   CLEAR     55  55 100 CALM      30.09S FOG
QUANTICO       CLEAR     61  58  90 NW6       30.09S
FREDERICKSBRG* CLOUDY    63  63 100 CALM      30.07S
STAFFORD*      CLOUDY    61  61 100 CALM      30.12S
WARRENTON      CLOUDY    63  63 100 CALM      30.08S
CULPEPER*      CLOUDY    63  61  94 CALM      30.09S FOG
MANASSAS*      PTCLDY    61  61 100 CALM      30.08S
LEESBURG*      MOCLDY    59  59 100 CALM      30.09S FOG
WINCHESTER     CLOUDY    61  59  94 CALM      30.08S FOG
FRONT ROYAL*   CLOUDY    57  57 100 CALM      30.08S
LURAY*         CLOUDY    61  61 100 CALM      30.08S FOG
$$

VAZ048-049-060>072-079>083-020900-
CENTRAL AND SOUTH CENTRAL VIRGINIA...AND NORTH CENTRAL NORTH CAROLINA

CITY           SKY/WX    TMP DP  RH WIND       PRES   REMARKS
RICHMOND       LGT RAIN  64  63  94 CALM      30.08R FOG
CHESTERFIELD*  CLOUDY   N/A N/A N/A N5        30.08R
PETERSBURG*    CLOUDY    64  63  96 CALM      30.07S FOG
HANOVER        RAIN      63  62  97 CALM      30.09R
TAPPAHANNOCK*  MOCLDY    60  58  95 CALM      30.07S
CHARLOTTSVILLE CLOUDY    63  62  97 CALM      30.08S
ORANGE*        MOCLDY    63  61  94 CALM      30.10S FOG
LOUISA*        CLOUDY    63  63 100 CALM      30.07S FOG
FARMVILLE*     CLOUDY    64  64 100 CALM      30.06S FOG
CREWE*         CLOUDY    64  62  94 CALM      30.07R
FORT PICKETT*  CLOUDY    63  62  97 CALM      30.07S
LUNENBURG*     CLOUDY    62  61  98 CALM      30.07S
SOUTH HILL*    PTCLDY    59  59 100 CALM      30.12S FOG
LAWRENCEVILLE* CLOUDY    62  62 100 CALM      30.07S
ROANOKE RAPIDS CLOUDY    57  57 100 CALM      30.07R FOG
RALEIGH        PTCLDY    60  58  92 CALM      30.07S FOG
$$

VAZ088>098-020900-
SOUTHEAST VIRGINIA

CITY           SKY/WX    TMP DP  RH WIND       PRES   REMARKS
NORFOLK        CLEAR     63  61  93 CALM      30.05S
VIRGINIA BEACH PTCLDY    62  59  90 CALM      30.05R
NORFOLK NAVAL  PTCLDY    65  61  87 CALM      30.07R
WEST POINT*    CLOUDY    62  59  91 CALM      30.08R
NEWPORT NEWS   CLEAR     63  59  87 CALM      30.06R
LANGLEY AFB    PTCLDY    61  61 100 W3        30.07R
FORT EUSTIS    CLOUDY    63 N/A N/A CALM      30.04S
WILLIAMSBURG*  PTCLDY    64  63  94 CALM      30.07S
HR EXEC AP*    CLOUDY    59  57  94 CALM      30.08S
FRANKLIN*      CLOUDY    63 N/A N/A CALM      30.06S
WAKEFIELD      MOCLDY    64  61  90 CALM      30.06S
$$

VAZ020-022-025-037-045-020900-
WEST CENTRAL AND SOUTHWEST VIRGINIA

CITY           SKY/WX    TMP DP  RH WIND       PRES   REMARKS
STAUNTON*      FOG       58  57  96 CALM      30.11S VSB 1/4
HOT SPRINGS VA CLEAR     54  41  62 SW6       30.17S
LYNCHBURG      PTCLDY    59  59 100 CALM      30.09S FOG
DANVILLE       FOG       60  59  96 CALM      30.07S VSB 1/4
SOUTH BOSTON*  NOT AVBL
MARTINSVILLE   FOG       57  57 100 CALM      30.10S VSB 1/2
ROANOKE        CLOUDY    59  59 100 CALM      30.10S FOG
BLACKSBURG     FOG       52  52 100 CALM      30.13S VSB<1/4
DUBLIN*        CLEAR     52  52 100 CALM      30.12S
MARION*        FOG       49  48  96 CALM      30.15S VSB 1/4
HILLSVILLE*    CLEAR     55  54  95 SW7       30.14R
RICHLANDS*     SUNNY     59  54  81 CALM      30.11F
WISE*          CLEAR     59  48  67 CALM      30.12S
ABINGDON*      CLEAR     57  55  94 E7        30.10S
$$

MDZ021>025-VAZ099-100-020900-
SOUTHERN MARYLAND AND THE DELMARVA PENINSULA

CITY           SKY/WX    TMP DP  RH WIND       PRES   REMARKS
PATUXENT RIVER CLEAR     57  55  93 CALM      30.07S
BAY BRIDGE APT   N/A     61  59  94 CALM      30.08S
LEONARDTOWN    CLEAR     55  54  94 CALM      30.09R
DOVER          CLEAR     58  58 100 NW5       30.05S
GEORGETOWN     PTCLDY    59  57  93 VRB3      30.07S
EASTON         CLEAR     60  60 100 CALM      30.11S FOG
CAMBRIDGE      CLEAR     55  54  94 CALM      30.07R
SALISBURY      MOCLDY    58  55  90 CALM      30.06S FOG
OCEAN CITY     CLEAR     58  57  97 NW5       30.05S FOG
WALLOPS ISLAND CLEAR     60  58  92 N6        30.06S
ACCOMACK*      PTCLDY    55  54  94 CALM      30.06S FOG
$$

NCZ012>017-030>032-020900-
EASTERN NORTH CAROLINA

CITY           SKY/WX    TMP DP  RH WIND       PRES   REMARKS
ELIZABETH CITY PTCLDY    62  62 100 W3        30.06R
AHOSKIE*       PTCLDY    61  60  96 CALM      30.07R
EDENTON*       CLOUDY    61  61  99 CALM      30.05S
CURRITUCK*     PTCLDY    63  61  93 CALM      30.06S
KILL DEVIL HLS CLEAR     67  61  81 N3        30.03S
MANTEO         PTCLDY    65  61  88 CALM      30.05S
CAPE HATTERAS  CLEAR     65  63  93 NE5       30.04S
TARBORO*       CLOUDY    61  60  96 CALM      30.08R FOG
GOLDSBORO      CLEAR     61  60  98 CALM      30.05R
WASHINGTON     PTCLDY    60  60  97 CALM      30.06F
GREENVILLE     MOCLDY    63  63 100 CALM      30.08S FOG
NEW BERN       FOG       63  61  94 CALM      30.07R VSB 1/2
WILMINGTON     CLEAR     63  62  97 CALM      30.05R
$$

VAZ048-020900-
ELSEWHERE

CITY           SKY/WX    TMP DP  RH WIND       PRES   REMARKS
HARRISBURG PA  PTCLDY    58  56  93 CALM      30.09S FOG
BALTIMORE      MOCLDY    58  57  97 CALM      30.08S
ANNAPOLIS      CLEAR     64  59  83 E3        30.08R
ANDREWS AFB    FOG       55  55 100 CALM      30.08R VSB 1/2
WILMINGTON DE  CLEAR     57  56  96 NW3       30.09S
PHILADELPHIA   CLOUDY    64  56  75 NE3       30.08S
WILDWOOD NJ*   CLEAR     59  54  82 N7        30.07S
ATLANTIC CITY  CLOUDY    59  57  93 N6        30.06S
HENDERSON NC   MOCLDY    60  58  96 CALM      30.07S FOG
GREENSBORO     CLEAR     61  60  97 CALM      30.07R FOG
ROCKY MOUNT    FOG       59  58  96 CALM      30.06F VSB 3/4
FAYETTEVILLE   CLOUDY    63  62  97 N3        30.05S FOG
CHARLOTTE      PTCLDY    65  61  87 CALM      30.05F
$$

VAZ100-020900-
MARINE

STATION/POSITION TIME  TEMP    WIND        PRES    WAVE   SWELL
                       AIR SEA DIR/SP/G            HT/PER HT/PER
                 (UTC) (F)     (DEG/KT/KT) (MB)    (FT/S) (FT/S)
44066 TX TWR #4  0800   66 69   20/ 21/ 27 1014.8R   9/ 8   2/12
CAPE MAY NJ      0800   61 73   20/  2/  3 1017.3S
LEWES DE         0800   65 69   30/ 13/ 15 1017.5S
15NM E FENWICK I 0800   66 70              1016.7F   5/ 7
OCEAN-CITY-INLET 0800   63 71  330/  6/  7 1017.0F
WACHAPREAGUE VA  0800   60 73  330/  2/  3 1017.7S
THOMAS POINT MD  0800   64 72   70/  7/  7 1019.5R
GOOSES REEF MD   0800   66     110/  6/  8 1018.7S
COVE POINT MD    0800   64      80/  5/  8 1018.1R
SOLOMONS ISLAND  0800      72                N/A
BISHOPS HEAD MD  0800   64 71   50/  4/  5 1017.6S
PINEY POINT MD   0800           60/  3/  3   N/A
POTOMAC MD       0800   67      80/  8/ 10 1017.1F
CAMBRIDGE MD     0800   63 71   50/  4/  5 1018.0R
LEWISETTA VA     0800   65 72  220/  4/  6 1017.7R
RAPPAHANNOCK LGT 0800           50/  8/  9 1018.1S
STINGRAY PT      0800   69      60/  6/  8   N/A
YORK RVR RNG VA  0800   69      70/  3/  4 1017.3R
YORKTOWN VA      0800   68 73  240/  2/  4 1017.4R
JAMESTOWN VA     0800   67      50/  2/  2   N/A
DOMINION TERM VA 0800   68      50/  2/  3 1017.7R
KIPTOPEKE VA     0800      76   50/  4/  4   N/A
CHES BAY BRIDGE  0800   69 73   40/  7/  8 1017.1R
CHESAPEAKE LGHT  0700   69      40/  9/ 11 1018.0R
WILLOUBY STN VA  0800   69      30/  2/  2 1016.4R
S CRANEY ISL VA  0800           60/  2/  3 1017.3R
CAPE HENRY BUOY  0800      72                N/A     4/ 7
1ST LANDING BUOY 0800   70      30/  6/  8 1017.1S
CAPE CHARLES BUO 0800      72                N/A     3/ 6   3/ 6
OFFSHORE WE BUOY 0800      72                N/A     4/ 7   3/ 7
64NM E OF VA BCH 0800   69 71  360/ 14/ 17 1016.3S   5/ 7   3/ 8
DUCK PIER NC     0800   69 73   10/  9/ 10 1016.5S
44100 DUCK FRF   0800      72                N/A     4/ 8
44056 DUCK FRF   0800                        N/A     4/ 7
OREGON INLET NC  0800   68 74  360/  5/  7 1017.1S
HATTERAS NC      0800   70 74   20/  7/  9 1017.6R
DIAMOND SHLS NC  0800   70     360/ 12/ 14 1016.8R   3/ 7   2/ 7
CAPE LOOKOUT NC  0700   71      10/  6/  7 1017.1S
$$


USA.gov is the U.S. government's official web portal to all federal, state and local government web resources and services.